Regional Weather Roundup
Issued by NWS

Home | Current Version | Previous Version | Graphics & Text | Print | Product List | Glossary On
Versions: 1 2 3 4 5 6 7 8 9 10 11 12 13 14 15 16 17 18 19 20 21 22 23 24 25 26 27 28 29 30 31 32 33 34 35 36 37 38 39 40 41 42 43 44 45 46 47 48 49 50
022
ASUS43 KMKX 241900
RWRWI

WISCONSIN REGIONAL WEATHER ROUNDUP
NATIONAL WEATHER SERVICE MILWAUKEE/SULLIVAN WI
200 PM CDT SUN SEP 24 2017

NOTE: "FAIR" INDICATES FEW OR NO CLOUDS BELOW 12,000 FEET WITH NO
SIGNIFICANT WEATHER AND/OR OBSTRUCTIONS TO VISIBILITY.

WIZ001-002-006>008-014>016-023>028-242000-
NORTHWEST WISCONSIN

CITY           SKY/WX    TMP DP  RH WIND       PRES   REMARKS
SUPERIOR ARPT  MOSUNNY   69  65  85 NE7       29.91F
ASHLAND        MOSUNNY   88  66  48 SW17G25   29.92F HX  90
HAYWARD        MOSUNNY   85  62  46 S18       29.95F HX  85
SIREN          SUNNY     86  63  46 SW12G24   29.92F HX  86
CUMBERLAND     MOSUNNY   82  63  51 S15       29.95F HX  83
RICE LAKE      SUNNY     86  60  42 S15G21    29.97F HX  86
CHETEK         SUNNY     86  65  48 S10G16    29.96F HX  87
LADYSMITH      SUNNY     86  60  40 S16G23    30.00S HX  86
EAU CLAIRE     NOT AVBL
MENOMONIE      SUNNY     87  62  44 S15       29.95F HX  87
NEW RICHMOND   MOSUNNY   87  63  43 S14G20    29.94S HX  88
OSCEOLA        SUNNY     88  64  45 S13       29.94F HX  89
$$

WIZ003>005-009-010-017-018-242000-
NORTH CENTRAL WISCONSIN

CITY           SKY/WX    TMP DP  RH WIND       PRES   REMARKS
MANITOWISH WTR NOT AVBL
ARBOR VITAE    SUNNY     86  62  44 S15       30.01F HX  86
WOODRUFF       SUNNY     86  62  44 S15       30.01F HX  86
RHINELANDER    SUNNY     86  62  44 SW16G23   30.03F HX  86
EAGLE RIVER    MOSUNNY   84  59  41 SW12      30.02F HX  84
LAND O LAKES   MOSUNNY   86  60  41 SW10G17   30.04F HX  85
PHILLIPS       MOSUNNY   85  61  43 S13G21    29.99F HX  85
TOMAHAWK       MOSUNNY   85  59  41 S3        30.03F HX  84
MEDFORD        SUNNY     85  61  44 S14       30.01F HX  85
MERRILL        SUNNY     87  63  43 S13G20    30.02F HX  88
$$

WIZ029-030-035-036-043>047-242000-
CENTRAL WISCONSIN

CITY           SKY/WX    TMP DP  RH WIND       PRES   REMARKS
WAUSAU         PTSUNNY   85  61  44 S12       30.00F HX  85
MOSINEE        NOT AVBL
MARSHFIELD     MOSUNNY   86  60  41 S15G22    30.01F HX  86
STEVENS POINT  MOSUNNY   85  62  45 S12       30.03S HX  86
WAUPACA        SUNNY     91  62  38 SE13      30.02F HX  91
WAUTOMA        SUNNY     89  62  40 S14       30.01  HX  89
WISC RAPIDS    SUNNY     88  63  43 SW13      30.02F HX  89
CAMP DOUGLAS   NOT AVBL
$$

WIZ011>013-019>022-031-037>040-048>050-242000-
NORTHEAST WISCONSIN

CITY           SKY/WX    TMP DP  RH WIND       PRES   REMARKS
ANTIGO         MOSUNNY   85  63  47 SW15      30.05F HX  86
SHAWANO        MOSUNNY   90  63  40 SW7       30.02F HX  91
OCONTO         SUNNY     89  66  47 S8        30.02F HX  91
STURGEON BAY   SUNNY     87  68  52 SE9       30.04F HX  90
GREEN BAY      SUNNY     89  65  44 SW13      30.02F HX  91
MANITOWOC      SUNNY     81  68  64 SE8       30.05F HX  84
APPLETON       MOSUNNY   88  57  35 S14       30.03F HX  86
CLINTONVILLE   SUNNY     90  61  37 SW14G20   30.02F HX  89
OSHKOSH        SUNNY     88  65  46 S15G21    30.03F HX  90
$$

WIZ032>034-041-042-053>061-242000-
SOUTHWEST WISCONSIN

CITY           SKY/WX    TMP DP  RH WIND       PRES   REMARKS
LA CROSSE      SUNNY     92  61  35 S12G22    29.96F HX  92
SPARTA         SUNNY     89  59  36 S15       30.00F HX  88
VIROQUA        SUNNY     88  61  39 SE13      30.02F HX  87
BOSCOBEL       SUNNY     91  60  35 S9G17     29.99F HX  90
PRAIRIE DU CHI SUNNY     90  56  32 SE12G17   29.98F HX  88
PLATTEVILLE    SUNNY     88  61  40 S8        30.03F HX  88
$$

WIZ056-057-062-063-064-067-068-242000-
SOUTH CENTRAL WISCONSIN

CITY           SKY/WX    TMP DP  RH WIND       PRES   REMARKS
REEDSBURG      SUNNY     89  62  41 S9        30.01F HX  89
BARABOO/DELLS  SUNNY     87  57  35 SW9       30.02F HX  86
LONE ROCK      NOT AVBL
MINERAL POINT  SUNNY     88  59  37 SE9G17    30.04F HX  87
MADISON        SUNNY     89  59  36 S16G22    30.02F HX  88
MIDDLETON      SUNNY     90  57  32 S14       30.03F HX  88
WATERTOWN      SUNNY     88  62  41 S13       30.04F HX  88
MONROE         SUNNY     88  55  33 S12G17    30.04F HX  86
JANESVILLE     SUNNY     91  54  27 S15       30.03F HX  89
$$

WIZ051-052-058>065-066-070>072-242000-
SOUTHEAST WISCONSIN

CITY           SKY/WX    TMP DP  RH WIND       PRES   REMARKS
MILWAUKEE      MOSUNNY   87  65  47 SE17      30.04F HX  89
WAUKESHA       MOSUNNY   88  59  37 SW10G17   30.06F HX  87
MILWAUKEE/TIMM MOSUNNY   90  54  29 SW8       30.05F HX  87
RACINE         SUNNY     87  65  47 SE13      30.07F HX  89
BURLINGTON     SUNNY     91  61  36 S8        30.05F HX  91
KENOSHA        MOSUNNY   90  62  39 VRB6      30.05F HX  90
FOND DU LAC    SUNNY     88  61  40 S14G21    30.03F HX  88
SHEBOYGAN      SUNNY     88  70  55 S10       30.05F HX  93
WEST BEND        N/A     88  57  35 S12       30.05F HX  86
JUNEAU         SUNNY     86  63  45 SE14      30.05F HX  87
$$

LSZ147-162-242000-
LAKE SUPERIOR

STATION/POSITION TIME  TEMP    WIND        PRES    WAVE
                       AIR SEA DIR/SP/G            HT/PER
                 (UTC) (F)     (DEG/KT/KT) (MB)    (FT/S)
W MID LAKE BUOY  1750   65 57  110/  6/  6 1013.5F   1
DEVILS ISLAND    1800   68      70/  6/  6 1013.2F
SAXON HARBOR     1830   87     200/ 14/ 21 1012.9F
$$

LMZ867-665-643>646-242000-
LAKE MICHIGAN

STATION/POSITION TIME  TEMP    WIND        PRES    WAVE
                       AIR SEA DIR/SP/G            HT/PER
                 (UTC) (F)     (DEG/KT/KT) (MB)    (FT/S)
S GREEN BAY BUOY 1830   82 69     CALM     1016.9F
N MID LAKE BUOY  1750   69 67  180/ 10/ 10 1018.6F   1/ 3
NORTHPORT PIER   1840   74     140/  8/  9 1017.3F
KEWAUNEE LAKESHO 1830   67     180/  9/ 10 1016.9F
SHEBOYGAN LAKESH 1800   71     160/ 12/ 12 1017.5F
PORT WASHINGTON  1830   76     170/  5/  6 1018.6F
ATWATER BUOY     1709   71 66  150/  8/ 10 1018.5F
MILWAUKEE LAKESH 1850   69     140/ 13/ 13   N/A
S MID LAKE BUOY  1750   73 71  160/  8/  8 1018.9F   1
KENOSHA   LAKESH 1800   76     160/  7/  9 1017.6
$$

TC  - TEMPERATURE IN CELSIUS
VSB - VISIBILITY IN STATUTE MILES
WCI - WIND CHILL INDEX
HX  - HEAT INDEX





USA.gov is the U.S. government's official web portal to all federal, state and local government web resources and services.